When you browse on this site, cookies collect data to enhance your experience and personalize the content and advertising you see.
Visit our Privacy Policy to learn more. By continuing to use the site, you agree to this use of cookies and data.
  • In Latvia
  • List of Countries
  • For 7 days
  • Water Temperature
  • Weather Map
  • Weather Widgets
  • user-avatar
    Login

    Hourly Weather Kriens

    Today, 15 September, Sunday

    Time Temperature Precipitation Wind Pressure Humidity
    00:00 +18°C° 0 mm 1 mps 719 mmHg 93%
    01:00 +18°C° 0 mm 1 mps 719 mmHg 93%
    02:00 +18°C° 0 mm 1 mps 718 mmHg 92%
    03:00 +16°C° 0 mm 1 mps 718 mmHg 92%
    04:00 +15°C° 0 mm 0 mps 718 mmHg 91%
    05:00 +18°C° 0 mm 1 mps 718 mmHg 91%
    06:00 +18°C° 0 mm 1 mps 718 mmHg 90%
    07:00 +18°C° 0 mm 1 mps 718 mmHg 89%
    08:00 +21°C° 0 mm 1 mps 718 mmHg 81%
    09:00 +23°C° 0 mm 1 mps 718 mmHg 72%
    10:00 +26°C° 0 mm 1 mps 718 mmHg 64%
    11:00 +27°C° 0 mm 1 mps 718 mmHg 61%
    12:00 +28°C° 0 mm 1 mps 718 mmHg 57%
    13:00 +29°C° 0 mm 1 mps 718 mmHg 54%
    14:00 +28°C° 0 mm 1 mps 717 mmHg 55%
    15:00 +28°C° 0 mm 1 mps 717 mmHg 57%
    16:00 +28°C° 0 mm 1 mps 717 mmHg 58%
    17:00 +26°C° 0.2 mm 1 mps 716 mmHg 67%
    18:00 +23°C° 0.2 mm 1 mps 716 mmHg 77%
    19:00 +19°C° 0.2 mm 0 mps 716 mmHg 87%
    20:00 +20°C° 0.1 mm 1 mps 716 mmHg 87%
    21:00 +20°C° 0.1 mm 1 mps 716 mmHg 87%
    22:00 +19°C° 0.1 mm 1 mps 716 mmHg 88%
    23:00 +19°C° 0 mm 1 mps 716 mmHg 87%

    Tomorrow, 16 September, Monday

    Time Temperature Precipitation Wind Pressure Humidity
    00:00 +19°C° 0 mm 1 mps 716 mmHg 87%
    01:00 +19°C° 0 mm 1 mps 716 mmHg 86%
    02:00 +19°C° 0 mm 1 mps 715 mmHg 85%
    03:00 +18°C° 0 mm 1 mps 715 mmHg 85%
    04:00 +18°C° 0 mm 1 mps 715 mmHg 84%
    05:00 +18°C° 0 mm 1 mps 715 mmHg 83%
    06:00 +18°C° 0 mm 1 mps 714 mmHg 82%
    07:00 +19°C° 0 mm 1 mps 714 mmHg 81%
    08:00 +21°C° 0 mm 1 mps 714 mmHg 74%
    09:00 +24°C° 0 mm 1 mps 715 mmHg 67%
    10:00 +26°C° 0 mm 1 mps 715 mmHg 60%
    11:00 +27°C° 0 mm 1 mps 715 mmHg 57%
    12:00 +28°C° 0 mm 1 mps 715 mmHg 53%
    13:00 +28°C° 0 mm 2 mps 714 mmHg 50%
    14:00 +28°C° 0.2 mm 2 mps 714 mmHg 54%
    15:00 +28°C° 0.2 mm 2 mps 714 mmHg 58%
    16:00 +27°C° 0.2 mm 2 mps 713 mmHg 62%
    17:00 +25°C° 0.3 mm 1 mps 713 mmHg 70%
    18:00 +23°C° 0.3 mm 1 mps 713 mmHg 79%
    19:00 +18°C° 0.3 mm 0 mps 713 mmHg 88%
    20:00 +20°C° 0 mm 1 mps 713 mmHg 89%
    21:00 +19°C° 0 mm 1 mps 713 mmHg 90%
    22:00 +18°C° 0 mm 1 mps 713 mmHg 91%
    23:00 +18°C° 0 mm 1 mps 713 mmHg 92%

    Day after tomorrow, 17 September, Tuesday

    Time Temperature Precipitation Wind Pressure Humidity
    00:00 +18°C° 0 mm 1 mps 713 mmHg 92%
    01:00 +16°C° 0 mm 1 mps 713 mmHg 92%
    02:00 +15°C° 0 mm 0 mps 713 mmHg 92%
    03:00 +15°C° 0 mm 0 mps 712 mmHg 92%
    04:00 +15°C° 0 mm 0 mps 712 mmHg 93%
    05:00 +15°C° 0 mm 0 mps 712 mmHg 92%
    06:00 +15°C° 0 mm 0 mps 712 mmHg 92%
    07:00 +15°C° 0 mm 0 mps 712 mmHg 92%
    08:00 +19°C° 0 mm 1 mps 712 mmHg 88%
    09:00 +20°C° 0 mm 1 mps 713 mmHg 83%
    10:00 +22°C° 0 mm 1 mps 713 mmHg 79%
    11:00 +22°C° 0 mm 1 mps 712 mmHg 76%
    12:00 +23°C° 0 mm 1 mps 712 mmHg 72%
    13:00 +23°C° 0 mm 2 mps 712 mmHg 69%
    14:00 +23°C° 0.1 mm 2 mps 712 mmHg 69%
    15:00 +23°C° 0.1 mm 2 mps 712 mmHg 69%
    16:00 +23°C° 0.1 mm 2 mps 711 mmHg 69%
    17:00 +20°C° 0 mm 2 mps 711 mmHg 77%
    18:00 +19°C° 0 mm 1 mps 711 mmHg 84%
    19:00 +16°C° 0 mm 1 mps 711 mmHg 92%
    20:00 +16°C° 0 mm 1 mps 711 mmHg 92%
    21:00 +16°C° 0 mm 1 mps 712 mmHg 92%
    22:00 +15°C° 0 mm 1 mps 712 mmHg 91%
    23:00 +15°C° 0 mm 1 mps 712 mmHg 90%

    18 September, Wednesday

    Time Temperature Precipitation Wind Pressure Humidity
    00:00 +14°C° 0 mm 1 mps 712 mmHg 89%
    01:00 +13°C° 0 mm 1 mps 712 mmHg 87%
    02:00 +13°C° 0 mm 1 mps 711 mmHg 87%
    03:00 +12°C° 0 mm 1 mps 711 mmHg 88%
    04:00 +12°C° 0 mm 1 mps 711 mmHg 88%
    05:00 +12°C° 0 mm 1 mps 711 mmHg 88%
    06:00 +11°C° 0 mm 1 mps 711 mmHg 88%
    07:00 +11°C° 0 mm 1 mps 711 mmHg 88%
    08:00 +12°C° 0 mm 1 mps 712 mmHg 83%
    09:00 +14°C° 0 mm 2 mps 712 mmHg 79%
    10:00 +15°C° 0 mm 2 mps 712 mmHg 75%
    11:00 +16°C° 0 mm 2 mps 712 mmHg 71%
    12:00 +17°C° 0 mm 2 mps 712 mmHg 68%
    13:00 +18°C° 0 mm 3 mps 711 mmHg 64%
    14:00 +18°C° 0 mm 3 mps 711 mmHg 65%
    15:00 +18°C° 0 mm 3 mps 711 mmHg 66%
    16:00 +17°C° 0 mm 3 mps 711 mmHg 67%
    17:00 +16°C° 0 mm 2 mps 711 mmHg 72%
    18:00 +14°C° 0 mm 2 mps 712 mmHg 77%
    19:00 +13°C° 0 mm 2 mps 712 mmHg 82%
    20:00 +12°C° 0 mm 2 mps 712 mmHg 84%
    21:00 +11°C° 0 mm 1 mps 713 mmHg 85%
    22:00 +10°C° 0 mm 1 mps 713 mmHg 87%
    23:00 +10°C° 0 mm 1 mps 713 mmHg 88%

    19 September, Thursday

    Time Temperature Precipitation Wind Pressure Humidity
    00:00 +9°C° 0 mm 1 mps 713 mmHg 89%
    01:00 +9°C° 0 mm 1 mps 713 mmHg 90%
    02:00 +8°C° 0 mm 1 mps 713 mmHg 90%
    03:00 +8°C° 0 mm 1 mps 712 mmHg 90%
    04:00 +8°C° 0 mm 1 mps 712 mmHg 91%
    05:00 +8°C° 0 mm 1 mps 713 mmHg 90%
    06:00 +8°C° 0 mm 1 mps 713 mmHg 89%
    07:00 +8°C° 0 mm 1 mps 713 mmHg 89%
    08:00 +8°C° 0 mm 2 mps 713 mmHg 82%
    09:00 +10°C° 0 mm 2 mps 714 mmHg 75%
    10:00 +11°C° 0 mm 3 mps 714 mmHg 69%
    11:00 +12°C° 0 mm 3 mps 714 mmHg 64%
    12:00 +14°C° 0 mm 3 mps 714 mmHg 60%
    13:00 +16°C° 0 mm 3 mps 714 mmHg 56%
    14:00 +14°C° 0 mm 4 mps 714 mmHg 57%
    15:00 +14°C° 0 mm 4 mps 714 mmHg 58%
    16:00 +14°C° 0 mm 4 mps 714 mmHg 58%
    17:00 +12°C° 0 mm 3 mps 714 mmHg 66%
    18:00 +10°C° 0 mm 3 mps 715 mmHg 74%
    19:00 +8°C° 0 mm 2 mps 715 mmHg 82%
    20:00 +8°C° 0 mm 2 mps 715 mmHg 84%
    21:00 +7°C° 0 mm 2 mps 716 mmHg 85%
    22:00 +6°C° 0 mm 2 mps 716 mmHg 87%
    23:00 +7°C° 0 mm 1 mps 716 mmHg 88%

    20 September, Friday

    Time Temperature Precipitation Wind Pressure Humidity
    00:00 +6°C° 0 mm 1 mps 716 mmHg 88%
    01:00 +6°C° 0 mm 1 mps 716 mmHg 88%
    02:00 +6°C° 0 mm 1 mps 716 mmHg 87%
    03:00 +5°C° 0 mm 1 mps 716 mmHg 86%
    04:00 +5°C° 0 mm 1 mps 716 mmHg 85%
    05:00 +5°C° 0 mm 1 mps 716 mmHg 83%
    06:00 +6°C° 0 mm 1 mps 716 mmHg 81%
    07:00 +6°C° 0 mm 1 mps 716 mmHg 80%
    08:00 +8°C° 0 mm 1 mps 716 mmHg 71%
    09:00 +10°C° 0 mm 2 mps 717 mmHg 63%
    10:00 +13°C° 0 mm 2 mps 717 mmHg 54%
    11:00 +14°C° 0 mm 2 mps 717 mmHg 52%
    12:00 +15°C° 0 mm 2 mps 717 mmHg 49%
    13:00 +16°C° 0 mm 3 mps 717 mmHg 47%
    14:00 +16°C° 0 mm 2 mps 716 mmHg 49%
    15:00 +16°C° 0 mm 2 mps 716 mmHg 51%
    16:00 +16°C° 0 mm 2 mps 716 mmHg 54%
    17:00 +14°C° 0 mm 2 mps 716 mmHg 63%
    18:00 +12°C° 0 mm 1 mps 716 mmHg 73%
    19:00 +10°C° 0 mm 1 mps 716 mmHg 82%
    20:00 +9°C° 0 mm 1 mps 716 mmHg 84%
    21:00 +9°C° 0 mm 1 mps 716 mmHg 85%
    22:00 +8°C° 0 mm 1 mps 717 mmHg 87%
    23:00 +8°C° 0 mm 1 mps 716 mmHg 86%
    Show more